G4CVN Weather Reports


Display with metric or nautical units.
time (UTC)temp
F
wind
direction
speed
MPH
gust
MPH
rain 1hr
in
rain 24hr
in
rain mn
in
humidity
%
barometer
mb
20260507223516 44 0.0 0.0 0.00 0.00 0.00 89 1020.4
20260507222515 44 0.0 0.0 0.00 0.00 0.00 89 1020.3
20260507221515 44 0.0 0.0 0.00 0.00 0.00 87 1020.3
20260507220515 45 0.0 0.0 0.00 0.00 0.00 87 1020.5
20260507215516 45 0.0 0.0 0.00 0.00 0.00 87 1020.6
20260507214516 46 0.0 0.0 0.00 0.00 0.00 87 1020.7
20260507213536 46 0.0 0.0 0.00 0.00 0.00 86 1020.8
20260507212516 46 0.0 0.0 0.00 0.00 0.00 85 1020.7
20260507211515 47 0.0 0.0 0.00 0.00 0.00 85 1020.7
20260507210516 48 0.0 0.0 0.00 0.00 0.00 84 1020.7
20260507205516 48 0.0 0.0 0.00 0.00 0.00 84 1020.7
20260507204515 49 0.0 0.0 0.00 0.00 0.00 83 1020.5
20260507203515 50 0.0 0.0 0.00 0.00 0.00 82 1020.3
20260507202556 51 0.0 0.0 0.00 0.00 0.00 81 1020.2
20260507201515 52 0.0 0.0 0.00 0.00 0.00 80 1020.1
20260507200516 53 0.0 0.0 0.00 0.00 0.00 79 1019.9
20260507195516 53 0.0 0.0 0.00 0.00 0.00 79 1019.7
20260507194516 54 0.0 0.0 0.00 0.00 0.00 78 1019.5
20260507193516 54 0.0 0.0 0.00 0.00 0.00 78 1019.6
20260507192516 54 0.0 1.0 0.00 0.00 0.00 77 1019.5
20260507191516 55 0.0 0.0 0.00 0.00 0.00 76 1019.5
20260507190516 55 0.0 1.0 0.00 0.00 0.00 76 1019.5
20260507185516 55 0.0 2.0 0.00 0.00 0.00 75 1019.4
20260507184516 56 0.0 1.0 0.00 0.00 0.00 74 1019.4
20260507183516 56 225 1.0 3.0 0.00 0.00 0.00 73 1019.4
20260507182536 56 225 1.0 2.0 0.00 0.00 0.00 73 1019.3
20260507181516 56 0.0 1.0 0.00 0.00 0.00 72 1019.3
20260507180516 56 225 1.0 2.0 0.00 0.00 0.00 71 1019.3
20260507175516 56 0.0 1.0 0.00 0.00 0.00 71 1019.4
20260507174536 56 225 1.0 2.0 0.00 0.00 0.00 71 1019.3
20260507173515 56 225 1.0 2.0 0.00 0.00 0.00 71 1019.3
20260507172516 56 225 1.0 3.0 0.00 0.00 0.00 72 1019.3
20260507171536 56 203 1.0 4.0 0.00 0.00 0.00 73 1019.3
20260507170516 56 225 1.0 3.0 0.00 0.00 0.00 73 1019.3
20260507165516 56 225 1.0 3.0 0.00 0.00 0.00 73 1019.3
20260507164515 56 203 1.0 3.0 0.00 0.00 0.00 73 1019.3
20260507163516 56 225 1.0 3.0 0.00 0.00 0.00 72 1019.3
20260507162516 56 225 1.0 3.0 0.00 0.00 0.00 72 1019.3
20260507161516 57 225 1.0 2.0 0.00 0.00 0.00 72 1019.4
20260507160516 57 225 1.0 3.0 0.00 0.00 0.00 71 1019.4
20260507155516 57 225 1.0 3.0 0.00 0.00 0.00 70 1019.4
20260507154516 57 225 1.0 3.0 0.00 0.00 0.00 69 1019.4
20260507153516 58 225 1.0 4.0 0.00 0.00 0.00 66 1019.4
20260507152516 59 248 1.0 3.0 0.00 0.00 0.00 66 1019.5
20260507151536 61 248 1.0 2.0 0.00 0.00 0.00 61 1019.4
20260507150556 62 248 1.0 3.0 0.00 0.00 0.00 59 1019.5
20260507145536 63 248 1.0 5.0 0.00 0.00 0.00 56 1019.4
20260507144516 62 248 2.0 4.0 0.00 0.00 0.00 57 1019.5
20260507143536 61 225 1.0 4.0 0.00 0.00 0.00 58 1019.5
20260507142516 61 225 2.0 4.0 0.00 0.00 0.00 56 1019.5
20260507141516 62 248 1.0 3.0 0.00 0.00 0.00 56 1019.6
20260507140516 61 270 1.0 2.0 0.00 0.00 0.00 59 1019.6
20260507135516 60 248 1.0 3.0 0.00 0.00 0.00 59 1019.6
20260507134516 59 0.0 2.0 0.00 0.00 0.00 60 1019.7
20260507133516 60 248 1.0 2.0 0.00 0.00 0.00 60 1019.7
20260507132516 60 225 1.0 5.0 0.00 0.00 0.00 58 1019.8
20260507131516 61 248 1.0 3.0 0.00 0.00 0.00 60 1019.8
20260507130536 61 225 1.0 3.0 0.00 0.00 0.00 60 1019.8
20260507125516 62 225 1.0 3.0 0.00 0.00 0.00 59 1019.8
20260507124516 63 248 1.0 5.0 0.00 0.00 0.00 58 1019.8
20260507123516 63 225 1.0 4.0 0.00 0.00 0.00 62 1019.9
20260507122516 62 225 1.0 4.0 0.00 0.00 0.00 59 1019.9
20260507121516 62 315 1.0 6.0 0.00 0.00 0.00 62 1019.9
20260507120516 61 315 1.0 2.0 0.00 0.00 0.00 63 1020.0
20260507115516 59 0.0 2.0 0.00 0.00 0.00 68 1020.1
20260507114516 58 248 1.0 3.0 0.00 0.00 0.00 65 1020.0
20260507113517 58 0.0 0.0 0.00 0.00 0.00 66 1020.0
20260507112516 58 0.0 0.0 0.00 0.00 0.00 64 1020.0
20260507111516 58 0.0 0.0 0.00 0.00 0.00 64 1020.0
20260507110536 58 0.0 0.0 0.00 0.00 0.00 64 1020.1
20260507105516 58 0.0 0.0 0.00 0.00 0.00 62 1020.1
20260507104516 58 0.0 0.0 0.00 0.00 0.00 63 1020.2
20260507103516 58 0.0 1.0 0.00 0.00 0.00 65 1020.1
20260507102516 58 0.0 2.0 0.00 0.00 0.00 67 1020.3
20260507101516 57 0.0 0.0 0.00 0.00 0.00 67 1020.3
20260507100516 57 0.0 0.0 0.00 0.00 0.00 68 1020.3
20260507095516 57 0.0 0.0 0.00 0.00 0.00 68 1020.3
20260507094516 57 0.0 1.0 0.00 0.00 0.00 68 1020.3
20260507093516 57 0.0 2.0 0.00 0.00 0.00 68 1020.3
20260507092516 56 0.0 0.0 0.00 0.00 0.00 71 1020.1
20260507091536 56 0.0 0.0 0.00 0.00 0.00 73 1020.2
20260507090516 56 0.0 2.0 0.00 0.00 0.00 73 1020.2
20260507085536 55 0.0 1.0 0.00 0.00 0.00 74 1020.2
20260507084516 55 0.0 1.0 0.00 0.00 0.00 76 1020.2
20260507083516 55 0.0 2.0 0.00 0.00 0.00 77 1020.2
20260507082516 55 225 1.0 2.0 0.00 0.00 0.00 77 1020.2
20260507081516 55 225 1.0 4.0 0.00 0.00 0.00 75 1020.1
20260507080516 55 225 1.0 4.0 0.00 0.00 0.00 79 1020.1
20260507075516 53 225 1.0 3.0 0.00 0.00 0.00 82 1020.1
20260507074516 52 293 1.0 2.0 0.00 0.00 0.00 86 1020.0
20260507073616 51 0.0 1.0 0.00 0.00 0.00 89 1020.0
20260507072516 50 293 1.0 2.0 0.00 0.00 0.00 92 1020.0
20260507071516 49 0.0 2.0 0.00 0.00 0.00 94 1019.9
20260507070516 48 0.0 2.0 0.00 0.00 0.00 95 1019.9
20260507065516 47 0.0 2.0 0.00 0.00 0.00 96 1019.8
20260507064516 45 0.0 0.0 0.00 0.00 0.00 95 1019.8
20260507063516 44 0.0 0.0 0.00 0.00 0.00 94 1019.8
20260507062516 44 0.0 0.0 0.00 0.00 0.00 94 1019.8
20260507061516 43 0.0 0.0 0.00 0.00 0.00 94 1019.8
20260507060516 43 0.0 0.0 0.00 0.00 0.00 93 1019.8
20260507055516 43 0.0 0.0 0.00 0.00 0.00 93 1019.7
20260507054536 43 0.0 0.0 0.00 0.00 0.00 92 1019.6
20260507053536 42 0.0 0.0 0.00 0.00 0.00 92 1019.5
20260507052516 43 0.0 0.0 0.00 0.00 0.00 92 1019.5
20260507051516 43 0.0 0.0 0.00 0.00 0.00 92 1019.4
20260507050516 43 0.0 0.0 0.00 0.00 0.00 92 1019.4
20260507045516 43 0.0 0.0 0.00 0.00 0.00 92 1019.4
20260507044516 43 0.0 0.0 0.00 0.00 0.00 92 1019.4
20260507043516 43 0.0 0.0 0.00 0.00 0.00 91 1019.3
20260507042536 43 0.0 0.0 0.00 0.00 0.00 91 1019.3
20260507041516 44 0.0 0.0 0.00 0.00 0.00 91 1019.2
20260507040516 44 0.0 0.0 0.00 0.00 0.00 91 1019.1
20260507035516 44 0.0 0.0 0.00 0.00 0.00 91 1019.2
20260507034516 44 0.0 0.0 0.00 0.00 0.00 91 1019.2
20260507033536 44 0.0 0.0 0.00 0.00 0.00 91 1019.2
20260507032516 44 0.0 0.0 0.00 0.00 0.00 91 1019.1
20260507031536 44 0.0 0.0 0.00 0.00 0.00 90 1019.1
20260507030516 44 0.0 0.0 0.00 0.00 0.00 89 1019.1
20260507025516 44 0.0 0.0 0.00 0.00 0.00 89 1019.0
20260507024516 45 0.0 0.0 0.00 0.00 0.00 89 1019.0
20260507023556 45 0.0 0.0 0.00 0.00 0.00 89 1019.0
20260507022516 45 0.0 0.0 0.00 0.00 0.00 88 1019.0
20260507021536 46 0.0 0.0 0.00 0.00 0.00 88 1019.0
20260507020536 46 0.0 0.0 0.00 0.00 0.00 88 1018.9
20260507015516 46 0.0 0.0 0.00 0.00 0.00 87 1018.8
20260507014516 47 0.0 0.0 0.00 0.00 0.00 87 1018.8
20260507013516 47 0.0 0.0 0.00 0.00 0.00 86 1018.8
20260507012516 47 0.0 0.0 0.00 0.00 0.00 86 1018.7
20260507011556 48 0.0 0.0 0.00 0.00 0.00 85 1018.8
20260507010556 48 0.0 0.0 0.00 0.00 0.00 84 1018.8
20260507005516 49 0.0 0.0 0.00 0.00 0.00 84 1018.8
20260507004536 49 0.0 0.0 0.00 0.00 0.00 84 1018.8
20260507003516 49 0.0 0.0 0.00 0.00 0.00 84 1018.8
20260507002617 50 0.0 0.0 0.00 0.00 0.00 83 1018.9
20260507001516 50 0.0 0.0 0.00 0.00 0.00 84 1018.9
20260507000516 50 0.0 0.0 0.00 0.00 0.00 84 1018.9
20260506235516 50 0.0 0.0 0.00 0.00 0.00 83 1018.9
20260506234516 50 0.0 0.0 0.00 0.00 0.00 83 1018.9
20260506233516 50 0.0 0.0 0.00 0.00 0.00 83 1018.8
20260506232516 50 0.0 0.0 0.00 0.00 0.00 83 1018.7
20260506231516 50 0.0 0.0 0.00 0.00 0.00 83 1018.7
20260506230516 51 0.0 0.0 0.00 0.00 0.00 83 1018.7
20260506225516 51 0.0 0.0 0.00 0.00 0.00 83 1018.7
20260506224516 51 0.0 0.0 0.00 0.00 0.00 82 1018.8